Regional Weather Roundup
Issued by NWS

Home | Current Version | Previous Version | Graphics & Text | Print | Product List | Glossary On
Versions: 1 2 3 4 5 6 7 8 9 10 11 12 13 14 15 16 17 18 19 20 21 22 23 24 25 26 27 28 29 30 31 32 33 34 35 36 37 38 39 40 41 42 43 44 45 46 47 48 49 50
000
ASUS43 KIND 230959
RWRIN

WEATHER ROUNDUP FOR INDIANA
NATIONAL WEATHER SERVICE INDIANAPOLIS IN
600 AM EDT SAT AUG 23 2014

NOTE: "FAIR" INDICATES FEW OR NO CLOUDS BELOW 12,000 FEET WITH NO
SIGNIFICANT WEATHER AND/OR OBSTRUCTIONS TO VISIBILITY.

* - STATION DOES NOT REPORT WEATHER SUCH AS PRECIPITATION OR FOG.

+ - STATION NOT QUALITY CONTROLLED BY THE NATIONAL WEATHER SERVICE.
    USE DATA WITH CAUTION...ESPECIALLY DEWPOINT AND RELATIVE
    HUMIDITY OBSERVATIONS.

INZ001>003-010>013-019-020-231100-
NORTHWEST INDIANA

CITY           SKY/WX    TMP DP  RH WIND       PRES   REMARKS
GARY /AIRPORT/   N/A     72  70  94 CALM      29.98S FOG
KNOX *+          N/A     67  65  94 CALM      29.98S VSB 1/4
MONTICELLO +   CLOUDY    68  68 100 CALM      29.98R FOG
RENSSELAER +   FOG       64  64 100 NE3       29.98S VSB<1/4
VALPARAISO     CLEAR     70  68  93 CALM      29.99S FOG

$$

LMZ046-743>745-231100-
SOUTHERN LAKE MICHIGAN

STATION/POSITION TIME  TEMP WIND        PRES
                       AIR  DIR/SP/G
                 (UTC) (F)  (DEG/KT/KT) (MB)
MICHIGAN CITY    0900   74  160/  3/  4   N/A

$$

INZ004-005-014>016-021>024-231100-
NORTH CENTRAL INDIANA

CITY           SKY/WX    TMP DP  RH WIND       PRES   REMARKS
GOSHEN         FOG       72  69  90 CALM      29.99R VSB 1/2
PERU/GRISSOM   FOG       70 N/A N/A CALM      29.99R VSB 1
SOUTH BEND     CLOUDY    70  69  97 CALM      30.00R FOG
WARSAW +       FOG       68  68 100 CALM      29.99S VSB 1/2

$$

INZ006>009-017-018-025>027-231100-
NORTHEAST INDIANA

CITY           SKY/WX    TMP DP  RH WIND       PRES   REMARKS
ANGOLA *+      PTCLDY    72  63  73 E3        30.01R
FORT WAYNE     PTCLDY    69  68  96 CALM      30.00R FOG

$$

INZ028-029-035-036-043>045-051>053-231100-
WEST CENTRAL INDIANA

CITY           SKY/WX    TMP DP  RH WIND       PRES   REMARKS
GREENCASTLE +  MOCLDY    70  70 100 CALM      29.99R FOG
LAFAYETTE      CLEAR     68  68 100 E3        29.98R FOG
TERRE HAUTE    FOG       71  70  96 CALM      29.97R VSB 1/4

$$

INZ030>032-037>040-046>048-054>057-064-065-231100-
CENTRAL INDIANA

CITY           SKY/WX    TMP DP  RH WIND       PRES   REMARKS
FRANKFORT +    CLEAR    N/A N/A N/A CALM      30.01R FOG
INDIANAPOLIS   CLEAR     70  68  93 CALM      29.98R
-EAGLE CREEK   CLEAR     70  68  93 CALM      29.98R
KOKOMO *+      CLOUDY    68  66  94 CALM      29.99R VSB 1/4
MT COMFORT *+    N/A     66 N/A N/A CALM      30.00R VSB 3/4
SHELBYVILLE    FOG       68  66  93 CALM      29.98S VSB 1

$$

INZ033-034-041-042-049-050-058-059-231100-
EAST CENTRAL INDIANA

CITY           SKY/WX    TMP DP  RH WIND       PRES   REMARKS
MUNCIE         FOG       69  67  93 CALM      29.99R VSB 1

$$

INZ060-061-067>069-081>083-085>088-231100-
SOUTHWEST INDIANA

CITY           SKY/WX    TMP DP  RH WIND       PRES   REMARKS
EVANSVILLE     MOCLDY    76  71  85 CALM      29.97S

$$

INZ062-063-066-070>080-084-089>092-231100-
SOUTH CENTRAL AND SOUTHEAST INDIANA

CITY           SKY/WX    TMP DP  RH WIND       PRES   REMARKS
BLOOMINGTON    FOG       73  71  93 CALM      29.98S VSB 1/4

$$




USA.gov is the U.S. government's official web portal to all federal, state and local government web resources and services.